Regional Weather Roundup
Issued by NWS

Home | Current Version | Previous Version | Text Only | Print | Product List | Glossary On
Versions: 1 2 3 4 5 6 7 8 9 10 11 12 13 14 15 16 17 18 19 20 21 22 23 24 25 26 27 28 29 30 31 32 33 34 35 36 37 38 39 40 41 42 43 44 45 46 47 48 49 50
000
ASPQ40 PGUM 201512
RWRPQ
WEATHER ROUNDUP FOR THE MARIANAS AND MICRONESIA
NATIONAL WEATHER SERVICE TIYAN GU
100 AM CHST SUN JAN 21 2018

GUZ001>004-201600-
MARIANA ISLANDS-

CITY           SKY/WX    TMP DP  RH WIND       PRES   REMARKS
GUAM AIRPORT   CLEAR     79  75  89 NE8       29.85F
ANDERSEN AFB   MOCLDY    79  73  83 NE14      29.86F
ROTA AIRPORT   NOT AVBL
TINIAN AP      NOT AVBL
SAIPAN AP      MOCLDY    81  73  78 NE13      29.86F

$$

PMZ161-201600-
REPUBLIC OF PALAU-

CITY           SKY/WX    TMP DP  RH WIND       PRES   REMARKS
KOROR AP       MOCLDY    81  75  83 E12G20    29.75S
KOROR WSO      CLOUDY    82  75  78 NE10      29.76R

$$

PMZ171>174-201600-
FEDERATED STATES OF MICRONESIA-

CITY           SKY/WX    TMP DP  RH WIND       PRES   REMARKS
YAP AIRPORT    CLOUDY    81  75  83 E8        29.76S
CHUUK AP       MOCLDY    79  75  89 VRB6      29.74F
POHNPEI AP     LGT RAIN  75  75 100 E5        29.77F
POHNPEI WSO    NOT AVBL
KOSRAE AP      NOT AVBL

$$

PMZ181-201600-
REPUBLIC OF THE MARSHALL ISLANDS-

CITY           SKY/WX    TMP DP  RH WIND       PRES   REMARKS
KWAJALEIN AP   PTCLDY    79  75  89 E12       29.76F
MAJURO AP      NOT AVBL
MAJURO WSO     MOCLDY    79  75  89 E12       29.74F

$$




USA.gov is the U.S. government's official web portal to all federal, state and local government web resources and services.